Powrót do katalogu

CZ-3A DEB

LostHEO
NORAD 36971·DEBRIS·🇨🇳 China

Wystrzelony Feb 2, 2007 z Xichang Satellite Launch Center

Loading…

Następne Przeloty (najbliższe 24 godziny)

TLE

NieaktualneSource: Space-Track

Epoka: Mar 3, 2023, 13:20 UTC

1 36971U 07003AH  23062.55562152  .00000157  00000-0  35416-2 0  9994
2 36971  25.4026 282.2295 7626740 228.7845  35.0348  1.75805539 91360

Śledź CZ-3A DEB w czasie rzeczywistym z AllMySat

Download on the App Store